Location: Oshawa
(43.9000°N, 78.8670°W)
Time: 23:35:06
(UTC-04:00)

SPOT 5 - Visible Passes

Search period start: 05 May 2016 00:00
Search period end: 15 May 2016 00:00
Orbit: 623 x 816 km, 98.5° (Epoch: 05 May)

Date Brightness Start Highest point End Pass type
(mag) Time Alt. Az. Time Alt. Az. Time Alt. Az.
05 May 3.7 21:07:25 10° SE 21:11:52 35° ENE 21:16:07 10° N visible
05 May 4.5 22:46:24 13° SSW 22:49:57 27° W 22:54:00 10° NW visible
06 May 2.9 21:55:49 15° SSE 21:59:51 83° WSW 22:04:33 10° NNW visible
07 May 3.7 21:05:41 10° SE 21:10:01 33° ENE 21:14:11 10° N visible
07 May 4.5 22:44:27 13° SSW 22:48:05 28° W 22:52:08 10° NW visible
08 May 2.8 21:53:52 15° SSE 21:57:59 86° WSW 22:02:38 10° NNW visible
09 May 3.8 21:03:57 10° SE 21:08:11 31° ENE 21:12:14 10° N visible
09 May 4.4 22:42:32 12° SSW 22:46:13 29° W 22:50:16 10° NW visible
10 May 2.8 21:51:56 14° SSE 21:56:08 90° N 22:00:44 10° NNW visible
11 May 3.8 21:02:13 10° SE 21:06:20 30° ENE 21:10:16 10° N visible
11 May 4.3 22:40:36 12° SSW 22:44:21 30° W 22:48:24 10° NW visible
12 May 2.7 21:50:01 13° SSE 21:54:16 86° ENE 21:58:49 10° NNW visible
13 May 3.9 21:00:29 10° SE 21:04:28 28° ENE 21:08:19 10° N visible
13 May 4.2 22:38:39 12° SSW 22:42:28 31° W 22:46:31 10° NW visible
14 May 2.7 21:48:04 12° SSE 21:52:24 83° ENE 21:56:54 10° NNW visible
14 May 5.5 23:30:17 10° W 23:30:59 10° W 23:31:39 10° W visible
